User: anonymous   Login
Location: Knowlton
(51.2333°N, 1.2667°E)
Time: 04:16:45
(UTC+00:00)
Language:

Cosmos 2237 Rocket - Orbit

View from above orbital plane
View from above orbital plane
View from above satellite
View from above satellite

Ground track
Ground track

The orbit data is extracted from the following two-line orbital elements,

1 22566U 93016B   21171.50179417  .00000161  00000-0  10800-3 0  9996
2 22566  71.0067 233.1767 0008460  60.4238 299.7727 14.14971190458393
Epoch (UTC): 20 June 2021 12:02:35
Eccentricity: 0.0008460
inclination: 71.0067°
perigee height: 836 km
apogee height: 848 km
right ascension of ascending node: 233.1767°
argument of perigee: 60.4238°
revolutions per day: 14.14971190
mean anomaly at epoch: 299.7727°
orbit number at epoch: 45839

The dashed part of the orbit path shows where the satellite is in the earth's shadow,  

DLR